Location: Newark
(46.1292°N, 1.0086°W)
Time: 07:21:49
(UTC+00:00)

Vanguard 3 - Pass Details

Date: 19 November 2019
Orbit: 508 x 3263 km, 33.3° (Epoch: 08 December)

Event Time Altitude Azimuth Distance (km) Brightness Sun altitude
Rises 16:44:02 0° 262° (W) 7,230 13.8 -3.3°
Reaches altitude 10° 16:49:12 10° 258° (WSW) 6,174 13.4 -4.1°
Maximum altitude 17:07:02 50° 191° (SSW) 3,178 10.4 -6.9°
Drops below altitude 10° 17:19:05 10° 122° (ESE) 4,297 10.5 -8.9°
Sets 17:21:59 0° 116° (ESE) 4,969 10.7 -9.4°
